Vertical_Velocity
-1 -1 -1 -1 -1 -1 -1 -2 -2 -2 -1 -1 -2 -3 -3 -3 -3 -2 -2 -0 -0 -1 -1 -1 -1 -2 -3 -4 -3 -3 -3 -3 -2 -2 -2 -2 -2 -2 -3 -4 -4 -4 -4 -5 -4 -3 -3 -2 -2 -2 -2 -2 -3 -3 -3 -3 -4 -3 -3 -2 -1 -2 -2 -2 -2 -3 -4 -4 -3
-1 -1 -1 -1 -1 -2 -2 -3 -3 -3 -3 -3 -2 -2 -3 -3 -2 -2 -2 -1 -0 0 -0 -1 -2 -2 -2 -3 -3 -2 -2 -2 -2 -2 -2 -2 -2 -2 -3 -3 -3 -3 -3 -4 -3 -3 -3 -3 -2 -2 -2 -2 -2 -2 -2 -2 -3 -3 -4 -3 -2 -1 -1 -1 -2 -3 -3 -4 -3
-0 -1 -1 -2 -2 -3 -3 -3 -2 -2 -2 -3 -3 -3 -3 -3 -3 -2 -1 -1 -0 -0 -0 -1 -2 -1 -1 -2 -3 -2 -1 -1 -1 -2 -2 -2 -3 -3 -3 -4 -4 -4 -3 -3 -3 -3 -2 -2 -2 -2 -2 -2 -2 -2 -2 -2 -2 -3 -3 -4 -4 -3 -2 -2 -2 -2 -3 -4 -4
-0 -0 -1 -1 -2 -1 -1 -1 -1 -1 -1 -1 -2 -3 -3 -3 -3 -2 -1 -0 -1 -1 -1 -0 -1 -1 -1 -1 -2 -2 -2 -1 -1 -1 -1 -2 -3 -3 -3 -3 -4 -4 -4 -4 -4 -4 -3 -2 -2 -3 -3 -3 -3 -4 -4 -3 -3 -2 -3 -3 -3 -3 -3 -2 -2 -2 -2 -3 -4
-1 -0 -0 0 -0 -0 -0 -0 -1 -1 -2 -1 -2 -3 -4 -4 -3 -2 -2 -1 -1 -0 0 0 0 -0 -0 -1 -1 -2 -2 -2 -1 -1 -1 -2 -3 -3 -3 -3 -3 -3 -3 -3 -3 -3 -4 -3 -2 -2 -2 -3 -3 -3 -3 -3 -3 -2 -2 -2 -3 -3 -3 -2 -2 -1 -1 -2 -3
-1 -1 -1 -0 -1 -1 -1 -1 -1 -0 -1 -1 -1 -3 -4 -4 -3 -2 -1 -0 1 1 1 1 0 0 -0 -1 -1 -1 -1 -2 -2 -2 -2 -2 -3 -3 -4 -4 -3 -3 -3 -2 -2 -2 -3 -3 -3 -2 -1 -1 -2 -3 -3 -3 -3 -3 -2 -2 -3 -4 -4 -3 -2 -1 -0 -0 -2
1 0 -0 -1 -1 -1 -1 -2 -1 -1 -1 -1 -1 -2 -2 -3 -2 -1 1 2 1 1 0 1 1 -0 -1 -1 -1 -1 -1 -2 -2 -2 -2 -2 -3 -3 -3 -4 -4 -4 -4 -3 -3 -2 -2 -2 -3 -4 -3 -2 -2 -3 -4 -3 -3 -2 -2 -2 -2 -3 -4 -4 -3 -1 -0 0 -0
-0 0 1 1 0 -0 -0 -1 -1 -2 -2 -2 -1 -1 -2 -2 -1 -1 -0 0 0 1 1 1 1 1 0 -0 -1 -1 -1 -2 -2 -2 -2 -2 -2 -2 -2 -2 -3 -3 -3 -3 -3 -2 -2 -2 -3 -3 -4 -4 -3 -2 -3 -4 -3 -2 -2 -1 -2 -2 -3 -4 -3 -2 -1 0 0
-1 -1 -0 -0 -0 -0 -0 -0 -0 -0 -1 -1 -1 -1 -1 -1 -1 -1 -0 -0 1 2 2 1 1 0 -0 -0 -0 -1 -1 -1 -2 -2 -3 -2 -2 -3 -3 -2 -2 -2 -2 -2 -2 -2 -2 -2 -2 -2 -3 -3 -3 -2 -3 -3 -3 -3 -2 -1 -1 -2 -2 -3 -3 -3 -1 -0 0
-1 -0 -1 -1 -1 -1 -0 -0 -0 -0 -0 -1 -1 -1 -1 -1 -1 -1 0 1 1 1 1 1 1 0 -0 -1 -1 -1 -1 -1 -1 -2 -2 -2 -2 -2 -3 -3 -3 -3 -3 -3 -2 -1 -1 -1 -1 -2 -2 -2 -2 -2 -2 -2 -2 -3 -3 -2 -2 -2 -2 -3 -3 -3 -2 -1 0
-0 0 0 0 -0 -0 -0 -0 -0 -0 -1 -1 -1 -1 -1 -1 -1 -1 -0 1 1 0 0 1 1 1 0 -0 -1 -1 -1 -1 -1 -1 -2 -2 -2 -2 -2 -2 -2 -2 -3 -3 -2 -2 -1 -2 -2 -1 -1 -2 -2 -2 -2 -2 -1 -1 -2 -2 -2 -2 -2 -2 -2 -2 -2 -2 -1
-0 0 0 1 0 -0 -0 -0 0 0 -0 -0 -1 -1 -1 -1 -0 -0 -0 -0 0 1 1 1 1 1 0 -0 -1 -1 -1 -1 -1 -1 -1 -2 -2 -2 -2 -2 -2 -2 -2 -2 -2 -1 -1 -1 -1 -2 -2 -1 -1 -2 -2 -3 -2 -2 -1 -1 -1 -1 -2 -2 -2 -2 -2 -1 -1
0 0 0 0 -0 -0 -0 -0 0 1 1 -0 -1 -1 -1 -0 -0 0 0 -0 0 0 0 1 1 1 1 0 -0 -1 -1 -1 -1 -1 -1 -2 -2 -2 -2 -2 -2 -3 -3 -3 -3 -2 -1 0 1 -0 -1 -1 -2 -2 -2 -3 -3 -3 -2 -2 -1 -1 -1 -1 -1 -1 -1 -1 -1
0 1 1 1 0 -0 -0 -0 0 1 1 0 -1 -1 -1 -0 -0 -0 1 1 0 0 0 1 1 1 1 1 0 -0 -0 -1 -1 -1 -1 -1 -2 -2 -2 -2 -2 -2 -2 -3 -3 -3 -2 -2 -1 -0 0 -0 -1 -2 -2 -3 -3 -3 -3 -2 -2 -1 -1 -0 -0 -1 -1 -1 -0
-0 0 1 1 1 0 0 0 1 1 1 0 -0 -1 -1 -0 -0 0 0 1 1 1 1 0 0 1 1 1 0 0 -0 -0 -1 -1 -1 -1 -1 -2 -2 -2 -2 -2 -2 -2 -2 -2 -1 -2 -2 -1 -1 -0 -1 -1 -2 -2 -2 -2 -2 -1 -1 -1 -1 -0 -0 -0 -1 -1 -1
0 0 1 1 0 0 -0 -0 0 1 1 0 -0 -1 -1 -1 -0 0 1 1 0 0 1 0 0 0 0 1 1 1 0 -0 -0 -1 -1 -1 -1 -1 -1 -1 -1 -2 -2 -2 -2 -1 -0 0 0 -0 -1 -2 -2 -2 -2 -2 -2 -2 -1 -1 -1 -1 -1 -1 -1 -1 -0 -1 -1
0 1 1 1 1 0 -0 -0 -0 -0 0 -0 -1 -1 -0 -0 -0 0 1 1 1 0 0 0 0 0 0 -0 1 1 1 -0 -0 -0 -1 -1 -1 -1 -1 -2 -2 -2 -1 -1 -2 -1 -1 -0 -0 -0 -1 -1 -2 -3 -3 -3 -2 -1 -1 -1 -1 -2 -2 -2 -1 -0 -0 -0 -0
0 0 1 1 1 0 -0 -1 -1 -0 -0 -0 -0 -0 -0 0 0 0 1 1 1 1 0 -0 0 1 1 -0 -0 0 1 -0 -1 -1 -1 -1 -0 -0 -1 -1 -1 -1 -1 -1 -0 -0 -0 0 -0 -1 -1 -2 -2 -2 -2 -2 -2 -1 -1 -1 -2 -2 -2 -2 -1 -0 0 0 0
0 0 0 0 0 0 -0 -1 -0 -0 0 1 0 0 -0 0 1 1 1 0 1 1 1 0 0 0 1 1 0 -0 0 0 -0 -1 -1 -1 -0 -0 -0 -1 -1 -1 -1 -1 -0 0 1 1 1 -0 -1 -2 -2 -2 -1 -1 -1 -2 -2 -2 -3 -3 -3 -2 -1 -0 0 0 0
0 0 0 1 1 0 -0 -1 -0 1 1 1 0 0 0 1 1 1 1 1 1 1 1 1 0 0 0 0 -0 -0 -0 -0 -0 -0 -0 -0 -1 -1 -1 -1 -1 -1 -1 -1 -0 -0 -0 -0 -0 -1 -1 -2 -2 -2 -2 -2 -2 -2 -2 -2 -3 -3 -3 -3 -2 -1 -0 -0 -0
0 0 1 1 1 1 0 0 1 1 1 1 1 1 1 1 2 2 2 1 1 1 1 1 1 1 0 -0 -0 -0 -1 -1 -1 -1 -0 -0 -0 -0 -0 -1 -1 -0 -0 -0 0 0 0 0 -1 -2 -2 -2 -2 -2 -2 -2 -2 -1 -1 -1 -1 -2 -2 -3 -2 -2 -2 -1 -2
0 0 1 1 1 0 0 1 1 2 2 1 1 1 1 2 2 2 2 1 1 1 1 1 1 1 1 1 0 -0 -0 -1 -1 -1 -1 -1 -0 -0 0 -0 -0 -1 -1 -1 -1 -0 0 1 1 0 -1 -2 -2 -1 -1 -0 0 1 2 2 1 -0 -1 -2 -1 -1 -2 -2 -3
1 0 0 0 0 0 0 1 2 2 2 1 1 1 2 2 2 2 2 1 1 0 1 1 1 1 1 1 1 0 -1 -1 -1 -1 -1 -1 -1 -1 -0 0 -0 -1 -1 -1 -1 -1 -1 0 1 2 1 1 0 -0 -0 0 1 2 2 3 2 1 1 1 0 0 -0 -1 -3
1 1 0 -0 -1 -0 0 2 4 4 3 2 2 2 2 3 2 2 2 1 1 1 0 0 1 1 1 1 1 0 -0 -1 -1 -2 -2 -1 -1 -1 -1 -0 -0 -1 -1 -2 -2 -1 -1 -0 1 1 2 3 3 2 1 0 -0 0 0 0 -0 1 2 5 5 4 2 0 -1
1 1 0 -1 -1 -1 0 3 5 5 4 3 2 2 2 2 2 2 2 1 1 1 0 1 1 1 1 1 1 1 1 0 -0 -1 -1 -2 -1 -1 -1 -1 -1 -1 -1 -2 -2 -2 -1 -0 1 1 2 2 2 2 1 0 -1 -1 -2 -2 -2 -1 2 6 8 7 5 2 -0
1 1 -0 -1 -1 -0 2 5 7 6 5 4 3 2 2 3 3 3 2 2 1 1 1 1 1 1 1 1 1 0 0 1 0 -0 -1 -1 -1 -1 -1 -1 -1 -1 -2 -2 -2 -2 -2 -1 -0 0 1 1 1 -0 -1 -1 -1 -1 -2 -2 -2 -1 1 5 7 7 5 2 -0
-0 -0 -0 -1 0 2 5 7 8 7 5 4 3 3 3 3 3 3 2 2 1 1 1 1 1 1 1 1 1 0 -0 0 0 0 -0 -0 -1 -1 -1 -1 -1 -1 -1 -1 -1 -1 -1 -1 -1 -0 -0 -0 -0 -1 -1 -1 -1 -1 -1 -2 -2 -1 1 3 3 2 1 -0 -1
0 0 1 1 2 5 7 9 8 7 5 4 4 4 4 4 3 3 2 2 1 1 0 0 1 1 2 1 0 -0 -0 -0 -0 -0 -0 -0 0 -0 -0 -1 -1 -1 -1 -1 -1 -1 -0 -0 -0 -0 -0 -0 -1 -1 -2 -2 -2 -1 -1 -2 -3 -1 0 1 -1 -3 -4 -4 -3
2 1 2 3 5 7 9 9 8 7 5 4 4 4 4 4 4 3 2 1 1 0 0 0 1 1 1 1 1 0 -0 -1 -1 -1 -0 -1 -1 -0 -0 -0 -1 -1 -1 -1 -0 -0 -0 0 0 -0 -0 -0 -1 -2 -2 -3 -2 -2 -2 -3 -3 -2 -1 -2 -4 -6 -7 -6 -4
2 3 4 6 8 9 10 9 8 7 5 4 4 4 4 4 3 3 2 1 1 1 1 1 1 1 2 2 1 0 -1 -1 -1 -1 -1 -1 -1 -1 -0 -0 -0 -1 -1 -1 -0 -0 0 0 0 0 0 -0 -1 -1 -2 -3 -2 -3 -3 -4 -3 -2 -2 -3 -5 -6 -5 -4 -3
3 4 6 9 10 10 9 9 8 6 5 4 4 4 4 4 3 3 2 2 2 1 1 1 1 1 2 2 1 0 -1 -1 -1 -1 -2 -2 -1 -0 -0 -0 -0 -0 -1 -1 -0 -0 0 1 1 1 0 -0 -1 -2 -3 -3 -3 -4 -4 -5 -3 -2 -2 -3 -3 -3 -3 -3 -3
5 7 10 11 10 9 9 8 7 6 5 5 4 4 4 4 4 3 3 2 1 1 0 0 1 1 1 1 1 0 -1 -2 -2 -2 -2 -2 -1 -1 0 1 0 -0 -0 -0 -0 0 0 1 1 1 1 0 -0 -1 -2 -3 -4 -4 -4 -3 -2 -2 -2 -3 -3 -2 -2 -2 -2
7 10 11 11 10 9 8 8 8 7 6 5 5 5 5 4 4 3 2 1 1 1 1 1 1 2 2 2 2 1 0 -1 -1 -2 -2 -2 -2 -1 -0 1 0 0 0 -0 0 0 1 1 1 1 1 1 1 -0 -1 -2 -2 -2 -2 -1 -1 -2 -3 -4 -3 -2 -2 -2 -2
10 11 11 10 9 8 8 8 8 7 6 5 5 5 5 5 4 3 2 1 1 1 2 2 2 2 3 3 3 2 1 -0 -1 -2 -3 -3 -2 -2 -1 -0 1 1 1 0 0 1 1 1 1 1 1 1 0 -0 -1 -2 -2 -2 -1 -0 -1 -2 -3 -3 -2 -2 -2 -2 -2
11 12 11 9 8 8 8 8 8 7 6 5 5 5 5 4 4 3 3 2 2 2 1 1 1 2 2 2 2 2 1 -1 -2 -2 -2 -3 -3 -3 -2 -1 0 1 1 0 0 1 1 1 1 1 1 1 0 -1 -1 -2 -3 -2 -1 -1 -2 -3 -4 -3 -2 -2 -2 -2 -2
12 12 10 8 7 7 8 9 9 8 7 6 5 5 5 4 4 3 3 2 2 2 1 1 1 1 1 2 2 2 1 0 -1 -2 -2 -2 -3 -3 -3 -2 -1 -0 -0 -0 0 0 0 1 1 1 1 2 1 0 -0 -1 -2 -1 -1 -1 -3 -4 -5 -4 -4 -3 -3 -2 -2
10 10 10 8 7 7 8 9 9 8 6 5 5 5 5 5 4 3 2 2 2 2 1 2 2 1 2 2 3 3 3 2 0 -1 -2 -2 -2 -3 -3 -2 -2 -1 -1 -1 -1 -0 -0 0 1 1 1 1 1 1 -0 -1 -1 -1 -1 -2 -4 -5 -5 -5 -4 -3 -3 -2 -2
9 9 8 7 7 7 8 8 8 8 6 5 5 5 5 5 5 4 2 2 2 2 2 2 2 2 2 2 3 3 3 2 1 0 -0 -1 -1 -2 -2 -2 -2 -2 -1 -1 -1 -1 -0 -0 -0 0 0 1 1 0 -0 -1 -1 -1 -1 -2 -3 -4 -4 -4 -3 -2 -2 -2 -2
8 8 7 7 6 7 7 8 8 7 6 4 4 4 4 5 5 4 3 2 2 2 2 2 2 2 2 2 2 3 3 2 2 1 1 -0 -0 -1 -1 -2 -2 -2 -1 -1 -1 -1 -1 -1 -0 -0 0 1 1 1 0 -0 -1 -1 -2 -2 -3 -3 -3 -3 -3 -2 -2 -1 -2
7 7 6 5 5 6 6 7 7 6 5 4 4 4 5 6 5 4 3 2 2 2 2 2 2 2 2 2 2 2 2 2 2 2 1 1 0 -0 -1 -1 -2 -1 -1 -1 -1 -1 -1 -1 -0 -0 1 1 1 1 0 -0 -1 -1 -1 -2 -3 -3 -2 -1 -1 -1 -1 -1 -2
6 6 5 4 4 5 6 6 6 5 4 4 4 4 5 6 6 4 3 2 2 2 2 2 2 2 2 2 2 2 2 2 1 1 1 1 0 -0 -1 -1 -1 -1 -1 -1 -1 -1 -1 -1 -0 0 1 1 1 1 0 -0 -1 -1 -2 -2 -2 -2 -1 0 1 1 0 -1 -2
Height
5687 5683 5679 5675 5671 5668 5663 5660 5656 5652 5647 5643 5638 5634 5629 5624 5620 5615 5610 5605 5600 5595 5590 5585 5580 5575 5570 5565 5560 5555 5549 5543 5538 5533 5527 5522 5516 5510 5504 5498 5492 5487 5481 5476 5470 5464 5459 5453 5448 5443 5437 5432 5426 5421 5416 5411 5405 5400 5395 5390 5385 5380 5375 5369 5364 5358 5353 5348 5344
5684 5680 5677 5673 5669 5665 5661 5657 5653 5649 5644 5640 5636 5631 5627 5622 5617 5613 5608 5603 5598 5593 5588 5583 5578 5573 5568 5563 5557 5552 5547 5541 5536 5530 5525 5519 5513 5507 5502 5496 5490 5484 5479 5473 5468 5463 5457 5452 5446 5441 5435 5430 5424 5419 5414 5408 5403 5398 5393 5388 5383 5378 5373 5368 5363 5358 5353 5348 5343
5681 5677 5673 5670 5666 5662 5658 5654 5650 5646 5642 5638 5633 5628 5624 5619 5614 5610 5605 5600 5595 5590 5585 5580 5575 5570 5565 5560 5555 5549 5544 5539 5533 5528 5522 5517 5511 5505 5499 5493 5488 5482 5477 5471 5466 5460 5455 5450 5445 5439 5434 5428 5423 5418 5413 5407 5402 5397 5392 5387 5382 5377 5372 5367 5362 5357 5352 5347 5342
5678 5675 5671 5667 5663 5659 5656 5652 5648 5643 5639 5635 5630 5626 5621 5617 5612 5607 5602 5597 5593 5588 5583 5578 5573 5568 5563 5558 5552 5547 5542 5537 5531 5526 5520 5514 5508 5503 5497 5491 5486 5480 5475 5469 5464 5458 5453 5448 5443 5438 5433 5427 5422 5417 5412 5406 5401 5396 5391 5386 5381 5376 5371 5366 5361 5356 5351 5346 5341
5676 5672 5668 5665 5661 5657 5653 5649 5645 5641 5637 5632 5628 5623 5619 5614 5609 5604 5599 5595 5590 5585 5580 5575 5570 5565 5560 5555 5550 5545 5539 5534 5529 5523 5518 5512 5506 5500 5495 5489 5484 5478 5473 5468 5462 5457 5451 5446 5441 5435 5430 5426 5420 5415 5410 5405 5400 5394 5389 5384 5379 5374 5369 5365 5360 5355 5350 5345 5341
5673 5669 5666 5662 5658 5654 5651 5647 5643 5638 5634 5630 5625 5621 5616 5612 5607 5602 5597 5592 5587 5583 5578 5573 5568 5563 5558 5553 5547 5542 5537 5532 5526 5521 5515 5510 5504 5498 5493 5487 5482 5476 5471 5466 5460 5455 5449 5444 5439 5433 5428 5423 5418 5413 5408 5403 5398 5393 5388 5383 5378 5373 5368 5363 5359 5354 5349 5345 5340
5670 5667 5663 5659 5656 5652 5648 5644 5640 5636 5632 5627 5623 5618 5614 5609 5604 5600 5595 5590 5585 5580 5575 5570 5566 5561 5555 5550 5545 5540 5534 5529 5524 5518 5513 5508 5502 5496 5491 5485 5480 5475 5469 5464 5458 5453 5448 5443 5437 5432 5427 5422 5417 5412 5407 5402 5397 5392 5387 5382 5377 5372 5367 5362 5358 5353 5348 5344 5340
5668 5664 5661 5657 5653 5649 5645 5641 5637 5633 5629 5624 5620 5616 5611 5607 5602 5597 5593 5588 5583 5578 5573 5568 5563 5558 5553 5548 5543 5538 5532 5527 5521 5516 5510 5505 5500 5494 5488 5483 5478 5473 5468 5462 5457 5452 5446 5441 5436 5431 5426 5421 5415 5410 5405 5400 5395 5390 5386 5381 5376 5371 5366 5361 5356 5352 5348 5343 5339
5665 5662 5658 5654 5651 5647 5643 5639 5635 5631 5626 5622 5618 5613 5609 5604 5600 5595 5590 5585 5580 5576 5571 5566 5561 5556 5551 5546 5540 5535 5530 5524 5519 5514 5508 5503 5498 5492 5487 5481 5476 5471 5466 5460 5455 5450 5445 5439 5434 5429 5424 5419 5414 5409 5404 5399 5394 5390 5385 5380 5375 5370 5365 5360 5355 5351 5346 5342 5338
5662 5659 5655 5651 5648 5644 5640 5636 5632 5628 5624 5620 5615 5611 5606 5602 5597 5593 5588 5583 5578 5573 5568 5564 5559 5553 5548 5543 5538 5533 5528 5522 5517 5512 5506 5501 5496 5490 5485 5480 5475 5469 5464 5459 5454 5448 5443 5438 5433 5428 5423 5418 5413 5408 5403 5398 5393 5389 5384 5379 5375 5370 5365 5359 5354 5350 5345 5341 5338
5660 5656 5653 5649 5645 5641 5637 5633 5629 5625 5621 5617 5613 5608 5604 5599 5595 5590 5585 5581 5576 5571 5566 5562 5556 5551 5546 5541 5536 5531 5525 5520 5515 5510 5504 5499 5494 5488 5483 5478 5473 5468 5463 5458 5453 5447 5442 5437 5432 5427 5421 5416 5412 5407 5402 5397 5393 5388 5383 5378 5374 5369 5364 5359 5353 5349 5344 5340 5337
5657 5653 5650 5646 5643 5638 5634 5631 5627 5623 5618 5614 5610 5606 5601 5597 5592 5588 5583 5578 5573 5569 5564 5559 5554 5549 5544 5539 5533 5528 5523 5518 5513 5508 5503 5497 5492 5487 5481 5476 5471 5466 5461 5456 5451 5446 5441 5436 5431 5426 5421 5415 5411 5406 5401 5396 5392 5387 5382 5378 5373 5368 5363 5358 5353 5348 5344 5340 5336
5654 5651 5647 5643 5640 5636 5632 5628 5624 5620 5616 5612 5608 5603 5599 5594 5590 5585 5581 5576 5571 5566 5562 5557 5552 5547 5542 5537 5531 5526 5521 5516 5511 5506 5501 5496 5490 5485 5480 5475 5470 5465 5460 5455 5450 5445 5440 5434 5430 5425 5420 5415 5410 5405 5400 5395 5391 5386 5382 5377 5372 5367 5363 5358 5353 5348 5343 5339 5335
5652 5648 5644 5641 5637 5633 5629 5625 5621 5617 5613 5609 5605 5601 5596 5592 5588 5583 5578 5574 5569 5564 5559 5555 5550 5545 5540 5535 5530 5524 5519 5514 5509 5504 5499 5494 5488 5483 5478 5473 5468 5463 5458 5453 5448 5443 5438 5434 5429 5424 5419 5414 5409 5404 5399 5394 5389 5385 5381 5376 5372 5367 5362 5357 5353 5348 5343 5338 5334
5649 5645 5642 5638 5634 5631 5627 5623 5619 5615 5610 5606 5602 5598 5593 5589 5585 5581 5576 5571 5567 5562 5557 5553 5548 5543 5538 5533 5528 5523 5517 5512 5507 5502 5497 5492 5487 5482 5477 5472 5467 5462 5457 5452 5447 5442 5437 5433 5428 5423 5418 5413 5408 5403 5398 5393 5388 5384 5380 5375 5371 5367 5362 5357 5352 5347 5343 5338 5334
5646 5643 5639 5635 5632 5628 5624 5620 5616 5612 5608 5603 5599 5595 5591 5587 5583 5578 5574 5569 5564 5559 5555 5550 5546 5541 5536 5531 5526 5521 5516 5510 5506 5501 5496 5490 5485 5480 5475 5470 5465 5460 5456 5451 5446 5440 5436 5431 5426 5422 5417 5412 5407 5402 5397 5393 5388 5383 5379 5374 5370 5365 5361 5356 5351 5347 5342 5338 5333
5643 5640 5636 5633 5629 5625 5621 5618 5613 5609 5605 5601 5597 5593 5588 5584 5580 5576 5571 5567 5562 5557 5553 5548 5543 5539 5534 5529 5524 5519 5514 5509 5504 5499 5494 5489 5484 5479 5474 5469 5464 5459 5454 5450 5445 5440 5435 5430 5425 5420 5415 5411 5406 5401 5397 5392 5387 5383 5378 5373 5369 5364 5359 5355 5350 5346 5341 5337 5333
5641 5637 5633 5630 5626 5623 5619 5615 5611 5607 5602 5598 5594 5590 5586 5582 5578 5573 5569 5564 5560 5555 5550 5546 5541 5537 5532 5527 5522 5517 5512 5507 5502 5497 5493 5488 5483 5478 5473 5468 5463 5458 5453 5448 5443 5439 5434 5429 5424 5419 5414 5409 5404 5400 5395 5391 5386 5382 5377 5373 5368 5363 5358 5353 5349 5345 5341 5337 5332
5638 5634 5631 5627 5623 5620 5616 5612 5608 5604 5600 5595 5591 5587 5583 5579 5575 5571 5566 5562 5558 5553 5548 5544 5539 5534 5530 5525 5520 5515 5510 5506 5501 5496 5491 5486 5481 5476 5471 5466 5462 5457 5452 5448 5443 5438 5433 5428 5423 5418 5413 5408 5403 5399 5394 5390 5385 5381 5376 5371 5366 5361 5357 5352 5348 5344 5340 5336 5332
5635 5632 5628 5624 5621 5617 5613 5609 5605 5601 5597 5593 5588 5584 5580 5576 5572 5568 5564 5560 5555 5551 5546 5542 5537 5533 5528 5523 5518 5513 5508 5504 5499 5494 5489 5484 5480 5475 5470 5465 5460 5456 5451 5446 5442 5437 5432 5427 5422 5417 5412 5408 5403 5398 5394 5389 5384 5379 5374 5370 5365 5361 5356 5352 5348 5343 5339 5335 5330
5633 5629 5625 5622 5618 5614 5610 5607 5603 5598 5594 5590 5586 5582 5578 5574 5570 5566 5562 5557 5553 5549 5544 5540 5535 5530 5526 5521 5516 5511 5507 5502 5498 5493 5488 5483 5478 5473 5469 5464 5459 5455 5450 5445 5440 5435 5431 5426 5421 5417 5412 5407 5402 5398 5393 5388 5383 5378 5374 5369 5365 5360 5356 5351 5347 5343 5338 5334 5329
5629 5626 5623 5619 5615 5612 5608 5604 5600 5596 5592 5588 5583 5579 5575 5571 5567 5563 5559 5555 5551 5547 5542 5538 5533 5528 5524 5519 5514 5509 5505 5500 5496 5491 5487 5482 5477 5472 5467 5463 5458 5453 5449 5444 5439 5434 5429 5425 5420 5415 5411 5406 5402 5397 5393 5388 5383 5379 5375 5370 5365 5360 5355 5351 5346 5342 5338 5333 5328
5627 5623 5620 5616 5613 5609 5605 5601 5597 5593 5589 5585 5581 5577 5573 5569 5565 5561 5557 5553 5548 5544 5540 5536 5531 5527 5522 5517 5513 5508 5503 5498 5494 5489 5485 5481 5476 5471 5466 5461 5457 5453 5448 5443 5438 5433 5429 5424 5420 5415 5411 5406 5402 5398 5393 5389 5385 5380 5376 5371 5366 5361 5356 5351 5347 5342 5337 5332 5327
5623 5620 5617 5613 5609 5606 5602 5598 5594 5590 5587 5583 5578 5574 5570 5566 5562 5558 5554 5550 5546 5542 5538 5533 5529 5525 5520 5516 5511 5506 5502 5497 5492 5488 5483 5479 5474 5470 5465 5460 5456 5451 5447 5442 5437 5433 5428 5424 5420 5415 5411 5407 5403 5398 5394 5389 5385 5380 5376 5371 5366 5361 5357 5353 5348 5343 5338 5332 5327
5621 5617 5613 5610 5607 5603 5599 5596 5592 5588 5584 5580 5576 5572 5568 5564 5560 5556 5552 5548 5544 5540 5536 5532 5527 5523 5518 5514 5509 5505 5500 5496 5491 5487 5482 5477 5473 5468 5463 5459 5454 5450 5445 5440 5436 5431 5427 5423 5419 5415 5411 5407 5403 5398 5393 5388 5384 5379 5375 5370 5365 5361 5357 5353 5348 5343 5338 5332 5327
5618 5614 5610 5607 5603 5600 5597 5593 5589 5585 5581 5577 5573 5569 5565 5561 5558 5553 5550 5546 5542 5538 5534 5530 5525 5521 5517 5512 5508 5503 5498 5494 5490 5485 5481 5476 5471 5467 5462 5457 5453 5448 5444 5439 5435 5430 5426 5422 5418 5413 5410 5406 5401 5397 5392 5388 5383 5378 5373 5369 5364 5360 5357 5353 5349 5343 5338 5332 5327
5614 5611 5608 5604 5601 5598 5594 5590 5587 5583 5579 5575 5571 5567 5563 5559 5555 5551 5548 5544 5540 5536 5532 5528 5523 5519 5515 5510 5506 5502 5497 5493 5488 5484 5479 5475 5470 5466 5461 5456 5451 5447 5443 5438 5434 5429 5425 5421 5416 5412 5408 5404 5400 5396 5392 5387 5382 5378 5373 5368 5364 5360 5357 5353 5348 5343 5337 5332 5327
5611 5608 5604 5601 5598 5595 5591 5588 5584 5580 5576 5572 5568 5564 5560 5557 5553 5549 5545 5541 5538 5534 5530 5526 5522 5518 5513 5509 5504 5500 5496 5491 5487 5483 5478 5474 5469 5464 5460 5455 5450 5446 5442 5438 5433 5429 5424 5420 5416 5411 5407 5403 5399 5395 5390 5386 5382 5377 5373 5368 5364 5360 5356 5351 5346 5341 5335 5330 5326
5608 5605 5602 5599 5596 5592 5588 5585 5581 5578 5573 5570 5566 5562 5558 5554 5551 5547 5543 5539 5536 5532 5528 5523 5519 5515 5511 5507 5503 5498 5494 5490 5485 5481 5477 5472 5468 5463 5459 5454 5449 5445 5441 5437 5432 5428 5423 5419 5415 5410 5406 5402 5398 5393 5389 5385 5381 5376 5372 5367 5363 5358 5354 5349 5344 5338 5334 5329 5325
5605 5602 5599 5596 5593 5589 5586 5582 5578 5575 5571 5567 5563 5559 5556 5552 5548 5545 5541 5537 5533 5529 5526 5522 5518 5514 5509 5505 5501 5497 5492 5488 5484 5480 5475 5471 5467 5462 5458 5453 5448 5444 5440 5436 5431 5427 5423 5418 5414 5409 5405 5401 5397 5392 5388 5384 5379 5375 5370 5366 5361 5357 5353 5348 5343 5338 5333 5329 5325
5603 5599 5597 5593 5590 5587 5583 5579 5576 5572 5568 5564 5561 5557 5553 5550 5546 5542 5538 5535 5531 5528 5524 5520 5516 5512 5508 5504 5500 5495 5491 5487 5482 5478 5474 5470 5465 5461 5456 5452 5447 5443 5439 5435 5430 5426 5422 5417 5413 5409 5405 5400 5396 5392 5387 5383 5379 5374 5369 5365 5361 5357 5352 5347 5342 5338 5333 5329 5325
5600 5597 5594 5591 5587 5583 5580 5577 5573 5569 5566 5562 5558 5554 5551 5547 5544 5540 5537 5533 5529 5525 5522 5518 5514 5510 5506 5502 5498 5493 5489 5485 5481 5477 5473 5468 5464 5460 5455 5451 5447 5442 5438 5434 5429 5425 5421 5417 5412 5408 5404 5400 5395 5391 5387 5383 5378 5373 5369 5365 5361 5356 5352 5347 5342 5338 5333 5329 5325
5597 5594 5591 5588 5584 5581 5577 5574 5570 5567 5563 5559 5556 5552 5548 5545 5541 5538 5534 5531 5527 5523 5520 5516 5512 5508 5504 5500 5496 5492 5487 5483 5479 5475 5471 5467 5463 5459 5454 5450 5446 5442 5437 5433 5429 5424 5420 5416 5412 5408 5403 5399 5395 5391 5386 5382 5378 5373 5369 5364 5360 5356 5352 5347 5343 5338 5333 5329 5325
5594 5591 5588 5585 5581 5578 5574 5571 5568 5564 5560 5557 5553 5550 5546 5543 5539 5536 5532 5528 5525 5521 5518 5514 5510 5507 5503 5499 5495 5490 5486 5482 5478 5474 5470 5466 5461 5457 5453 5449 5445 5441 5437 5432 5428 5424 5419 5415 5411 5407 5403 5399 5395 5390 5386 5382 5377 5373 5369 5365 5360 5356 5351 5347 5343 5338 5334 5329 5325
5592 5588 5585 5581 5578 5575 5571 5568 5565 5561 5558 5554 5551 5547 5544 5540 5537 5534 5530 5527 5523 5519 5516 5512 5508 5505 5501 5497 5493 5489 5485 5480 5476 5472 5468 5464 5460 5456 5452 5448 5443 5440 5436 5431 5427 5423 5418 5414 5410 5406 5403 5398 5394 5390 5386 5382 5378 5373 5369 5365 5360 5356 5351 5347 5343 5338 5334 5330 5326
5588 5585 5582 5578 5575 5571 5568 5565 5562 5558 5555 5552 5548 5545 5541 5538 5535 5531 5528 5525 5521 5518 5514 5510 5507 5503 5499 5495 5492 5488 5483 5479 5475 5471 5467 5463 5459 5455 5450 5446 5443 5438 5434 5430 5426 5422 5418 5413 5409 5406 5402 5398 5394 5390 5386 5382 5378 5373 5369 5365 5360 5356 5351 5347 5343 5338 5334 5330 5326
5585 5582 5578 5575 5571 5568 5565 5562 5559 5556 5552 5549 5546 5543 5539 5536 5532 5529 5526 5523 5519 5516 5512 5509 5505 5502 5498 5494 5490 5486 5482 5478 5474 5470 5466 5462 5458 5454 5449 5445 5441 5437 5433 5429 5425 5421 5417 5413 5409 5405 5401 5398 5394 5390 5386 5382 5377 5373 5369 5364 5360 5355 5351 5347 5343 5338 5334 5330 5327
5581 5578 5575 5571 5568 5565 5562 5559 5556 5553 5550 5547 5543 5540 5537 5533 5530 5527 5523 5520 5517 5513 5510 5507 5503 5500 5496 5493 5489 5485 5481 5477 5473 5469 5465 5461 5457 5453 5448 5444 5440 5436 5432 5428 5424 5420 5416 5412 5408 5404 5401 5397 5394 5390 5386 5382 5377 5373 5369 5365 5360 5355 5351 5347 5343 5339 5335 5331 5327
5578 5574 5571 5568 5565 5562 5559 5556 5553 5550 5547 5544 5541 5538 5534 5531 5528 5524 5521 5518 5515 5512 5508 5505 5502 5498 5495 5491 5488 5484 5480 5476 5472 5468 5464 5460 5456 5452 5448 5443 5439 5435 5431 5427 5423 5419 5415 5411 5407 5403 5400 5397 5393 5390 5386 5382 5378 5373 5369 5365 5360 5355 5351 5347 5343 5339 5335 5332 5328
5574 5571 5568 5565 5562 5559 5556 5553 5550 5547 5544 5541 5538 5535 5532 5528 5525 5522 5519 5516 5513 5510 5507 5503 5500 5497 5493 5490 5486 5483 5479 5475 5471 5468 5463 5459 5455 5451 5447 5443 5438 5434 5430 5427 5422 5418 5414 5410 5406 5403 5399 5396 5393 5389 5385 5381 5377 5373 5369 5365 5360 5356 5352 5348 5344 5340 5336 5332 5328
5571 5568 5564 5562 5559 5556 5553 5550 5547 5544 5541 5538 5535 5533 5529 5526 5523 5520 5517 5514 5511 5508 5505 5501 5498 5495 5492 5488 5485 5481 5478 5474 5470 5466 5463 5459 5455 5451 5446 5442 5438 5433 5430 5426 5422 5418 5413 5409 5406 5403 5399 5396 5392 5388 5385 5381 5377 5373 5369 5365 5361 5357 5353 5349 5345 5341 5337 5333 5329